Regional Weather Roundup
Issued by NWS

Home | Current Version | Previous Version | Text Only | Print | Product List | Glossary On
Versions: 1 2 3 4 5 6 7 8 9 10 11 12 13 14 15 16 17 18 19 20 21 22 23 24 25 26 27 28 29 30 31 32 33 34 35 36 37 38 39 40 41 42 43 44 45 46 47 48 49 50
980
ASUS42 KKEY 192010
RWRKEY

FLORIDA REGIONAL WEATHER ROUNDUP FOR THE FLORIDA KEYS
NATIONAL WEATHER SERVICE KEY WEST FLORIDA
300 PM EST SUN FEB 19 2017

...SOUTH FLORIDA AND THE KEYS...

CITY           SKY/WX    TMP DP  RH WIND       PRES   REMARKS
FORT MYERS     SUNNY     83  65  54 W12       30.03S
SW REGIONAL AP MOSUNNY   83  64  52 NW9       30.03S
NAPLES         MOSUNNY   81  68  64 NW12G20   30.03F
MIAMI          PTSUNNY   84  64  50 W10G17    30.00S
WEST KENDALL   MOSUNNY   90  63  40 W15       29.99F HX  91
HOMESTEAD      MOSUNNY   86  67  53 W12       29.99S
MARATHON       MOSUNNY   83  75  77 VRB5      30.03F HX  90
BOCA CHICA NAS MOSUNNY   81  68  64 NW9       30.04F
KEY WEST INTL  SUNNY     80  72  76 SW10      30.04F

...INTERNATIONAL WEATHER...

CITY           SKY/WX    TMP DP  RH WIND       PRES   REMARKS
NASSAU BAHAMAS PTSUNNY   86  63  45 S5        30.03
CANCUN MEXICO  MOSUNNY   82  72  69 SE20      29.95F
COZUMEL MEXICO PTSUNNY   86  70  58 SE17      29.93F HX  90

ADJACENT COASTAL WATERS...

STATION/POSITION TIME  SKY/WX   TEMP    WIND        PRES    WAVE
                                AIR SEA DIR/SP/G            HT/PER
                 (UTC)          (F)     (DEG/KT/KT) (MB)    (FT/S)
PULASKI SHOAL LI 2000            77        CALM     1017.4F
SAND KEY         1950            77     350/  1/  7 1017.8F
LONG KEY         2000            77 78  300/  9/ 10 1017.0F
MOLASSES REEF    NOT AVBL
FOWEY ROCKS      2000            77 75  200/ 18/ 19 1016.3F
Buoy 42097       2000                                 N/A     2/ 6

$$




USA.gov is the U.S. government's official web portal to all federal, state and local government web resources and services.